| time (UTC) | temp C | wind direction | speed KPH | gust KPH | rain 1hr cm | rain 24hr cm | rain mn cm | humidity % | barometer mb |
| 20260507141526 | 16 | 190 | 4.8 | 14.5 | 0.00 | 0.00 | 0.00 | 42 | 1015.7 |
| 20260507141007 | 16 | 110 | 0.0 | 3.2 | 0.00 | 0.00 | 0.00 | 42 | 1015.6 |
| 20260507140507 | 16 | 139 | 0.0 | 6.4 | 0.00 | 0.00 | 0.00 | 43 | 1015.7 |
| 20260507140028 | 16 | 196 | 1.6 | 6.4 | 0.00 | 0.00 | 0.00 | 42 | 1015.7 |
| 20260507135503 | 16 | 138 | 1.6 | 11.3 | 0.00 | 0.00 | 0.00 | 47 | 1015.8 |
| 20260507135008 | 16 | 184 | 6.4 | 11.3 | 0.00 | 0.00 | 0.00 | 47 | 1015.9 |
| 20260507134519 | 16 | 122 | 6.4 | 11.3 | 0.00 | 0.00 | 0.00 | 45 | 1015.8 |
| 20260507134006 | 16 | 171 | 1.6 | 4.8 | 0.00 | 0.00 | 0.00 | 47 | 1015.9 |
| 20260507133507 | 15 | 142 | 1.6 | 4.8 | 0.00 | 0.00 | 0.00 | 47 | 1015.9 |
| 20260507133022 | 15 | 28 | 1.6 | 4.8 | 0.00 | 0.00 | 0.00 | 46 | 1016.0 |
| 20260507132511 | 15 | 50 | 0.0 | 4.8 | 0.00 | 0.00 | 0.00 | 47 | 1016.0 |
| 20260507132009 | 15 | 126 | 3.2 | 9.7 | 0.00 | 0.00 | 0.00 | 48 | 1016.1 |
| 20260507131530 | 15 | 103 | 3.2 | 9.7 | 0.00 | 0.00 | 0.00 | 45 | 1016.0 |
| 20260507131003 | 15 | 145 | 3.2 | 9.7 | 0.00 | 0.00 | 0.00 | 48 | 1016.0 |
| 20260507130504 | 15 | 261 | 1.6 | 11.3 | 0.00 | 0.00 | 0.00 | 45 | 1016.0 |
| 20260507130011 | 16 | 98 | 4.8 | 11.3 | 0.00 | 0.00 | 0.00 | 45 | 1016.0 |
| 20260507125508 | 16 | 352 | 1.6 | 11.3 | 0.00 | 0.00 | 0.00 | 43 | 1016.0 |
| 20260507125004 | 16 | 170 | 3.2 | 9.7 | 0.00 | 0.00 | 0.00 | 44 | 1015.9 |
| 20260507124519 | 16 | 154 | 1.6 | 9.7 | 0.00 | 0.00 | 0.00 | 42 | 1016.0 |
| 20260507124008 | 16 | 18 | 1.6 | 12.9 | 0.00 | 0.00 | 0.00 | 42 | 1016.0 |
| 20260507123510 | 16 | 234 | 1.6 | 12.9 | 0.00 | 0.00 | 0.00 | 43 | 1016.0 |
| 20260507123033 | 16 | 188 | 3.2 | 14.5 | 0.00 | 0.00 | 0.00 | 44 | 1016.0 |
| 20260507122509 | 17 | 127 | 4.8 | 14.5 | 0.00 | 0.00 | 0.00 | 41 | 1016.0 |
| 20260507122010 | 17 | 111 | 3.2 | 12.9 | 0.00 | 0.00 | 0.00 | 43 | 1016.1 |
| 20260507121524 | 17 | 161 | 3.2 | 12.9 | 0.00 | 0.00 | 0.00 | 44 | 1016.1 |
| 20260507121008 | 17 | 184 | 1.6 | 12.9 | 0.00 | 0.00 | 0.00 | 44 | 1016.1 |
| 20260507120511 | 17 | 102 | 1.6 | 14.5 | 0.00 | 0.00 | 0.00 | 42 | 1016.2 |
| 20260507120020 | 17 | 111 | 4.8 | 14.5 | 0.00 | 0.00 | 0.00 | 43 | 1016.2 |
| 20260507115503 | 17 | 161 | 3.2 | 11.3 | 0.00 | 0.00 | 0.00 | 42 | 1016.3 |
| 20260507115006 | 16 | 176 | 6.4 | 14.5 | 0.00 | 0.00 | 0.00 | 45 | 1016.3 |
| 20260507114512 | 16 | 53 | 4.8 | 14.5 | 0.00 | 0.00 | 0.00 | 45 | 1016.2 |
| 20260507114008 | 16 | 161 | 3.2 | 14.5 | 0.00 | 0.00 | 0.00 | 42 | 1016.3 |
| 20260507113511 | 16 | 118 | 4.8 | 14.5 | 0.00 | 0.00 | 0.00 | 42 | 1016.3 |
| 20260507113035 | 16 | 182 | 1.6 | 9.7 | 0.00 | 0.00 | 0.00 | 46 | 1016.2 |
| 20260507112515 | 15 | 192 | 4.8 | 9.7 | 0.00 | 0.00 | 0.00 | 45 | 1016.3 |
| 20260507112014 | 15 | 53 | 1.6 | 16.1 | 0.00 | 0.00 | 0.00 | 45 | 1016.3 |
| 20260507111522 | 15 | 200 | 3.2 | 16.1 | 0.00 | 0.00 | 0.00 | 45 | 1016.4 |
| 20260507111009 | 15 | 167 | 3.2 | 11.3 | 0.00 | 0.00 | 0.00 | 48 | 1016.3 |
| 20260507110510 | 15 | 44 | 4.8 | 11.3 | 0.00 | 0.00 | 0.00 | 48 | 1016.4 |
| 20260507110030 | 15 | 123 | 3.2 | 8.0 | 0.00 | 0.00 | 0.00 | 51 | 1016.4 |
| 20260507105506 | 15 | 352 | 3.2 | 11.3 | 0.00 | 0.00 | 0.00 | 48 | 1016.5 |
| 20260507105003 | 15 | 121 | 4.8 | 11.3 | 0.00 | 0.00 | 0.00 | 47 | 1016.5 |
| 20260507104515 | 15 | 156 | 1.6 | 9.7 | 0.00 | 0.00 | 0.00 | 45 | 1016.5 |
| 20260507104008 | 15 | 142 | 4.8 | 11.3 | 0.00 | 0.00 | 0.00 | 47 | 1016.6 |
| 20260507103505 | 15 | 145 | 4.8 | 11.3 | 0.00 | 0.00 | 0.00 | 49 | 1016.7 |
| 20260507103016 | 15 | 75 | 1.6 | 9.7 | 0.00 | 0.00 | 0.00 | 48 | 1016.7 |
| 20260507102507 | 15 | 77 | 4.8 | 9.7 | 0.00 | 0.00 | 0.00 | 53 | 1016.7 |
| 20260507102008 | 15 | 161 | 4.8 | 9.7 | 0.00 | 0.00 | 0.00 | 58 | 1016.7 |
| 20260507101520 | 15 | 136 | 4.8 | 11.3 | 0.00 | 0.00 | 0.00 | 54 | 1016.7 |
| 20260507101011 | 15 | 148 | 3.2 | 12.9 | 0.00 | 0.00 | 0.00 | 59 | 1016.7 |
| 20260507100507 | 15 | 153 | 4.8 | 12.9 | 0.00 | 0.00 | 0.00 | 54 | 1016.7 |
| 20260507100034 | 14 | 206 | 4.8 | 12.9 | 0.00 | 0.00 | 0.00 | 56 | 1016.8 |
| 20260507095510 | 13 | 167 | 4.8 | 11.3 | 0.00 | 0.00 | 0.00 | 60 | 1016.7 |
| 20260507095007 | 13 | 146 | 1.6 | 11.3 | 0.00 | 0.00 | 0.00 | 61 | 1016.6 |
| 20260507094524 | 13 | 185 | 3.2 | 11.3 | 0.00 | 0.00 | 0.00 | 60 | 1016.6 |
| 20260507094003 | 13 | 235 | 6.4 | 11.3 | 0.00 | 0.00 | 0.00 | 62 | 1016.6 |
| 20260507093504 | 13 | 155 | 4.8 | 9.7 | 0.00 | 0.00 | 0.00 | 63 | 1016.6 |
| 20260507093012 | 13 | 135 | 4.8 | 9.7 | 0.00 | 0.00 | 0.00 | 63 | 1016.7 |
| 20260507092506 | 12 | 167 | 1.6 | 9.7 | 0.00 | 0.00 | 0.00 | 63 | 1016.7 |
| 20260507092008 | 12 | 159 | 1.6 | 9.7 | 0.00 | 0.00 | 0.00 | 65 | 1016.7 |
| 20260507091522 | 12 | 102 | 3.2 | 11.3 | 0.00 | 0.00 | 0.00 | 67 | 1016.7 |
| 20260507091008 | 12 | 155 | 4.8 | 11.3 | 0.00 | 0.00 | 0.00 | 68 | 1016.8 |
| 20260507090508 | 12 | 115 | 3.2 | 11.3 | 0.00 | 0.00 | 0.00 | 69 | 1016.7 |
| 20260507090023 | 11 | 157 | 4.8 | 11.3 | 0.00 | 0.00 | 0.00 | 70 | 1016.8 |
| 20260507085508 | 11 | 94 | 3.2 | 12.9 | 0.00 | 0.00 | 0.00 | 69 | 1016.7 |
| 20260507085007 | 11 | 125 | 4.8 | 12.9 | 0.00 | 0.00 | 0.00 | 71 | 1016.7 |
| 20260507084528 | 11 | 129 | 1.6 | 12.9 | 0.00 | 0.00 | 0.00 | 71 | 1016.8 |
| 20260507084012 | 11 | 130 | 3.2 | 12.9 | 0.00 | 0.00 | 0.00 | 72 | 1016.8 |
| 20260507083512 | 11 | 84 | 4.8 | 9.7 | 0.00 | 0.00 | 0.00 | 72 | 1016.8 |
| 20260507083026 | 11 | 192 | 3.2 | 9.7 | 0.00 | 0.00 | 0.00 | 74 | 1016.8 |
| 20260507082508 | 11 | 80 | 3.2 | 11.3 | 0.00 | 0.00 | 0.00 | 74 | 1016.8 |
| 20260507082009 | 11 | 88 | 3.2 | 11.3 | 0.00 | 0.00 | 0.00 | 74 | 1016.7 |
| 20260507081518 | 10 | 138 | 4.8 | 11.3 | 0.00 | 0.00 | 0.00 | 74 | 1016.8 |
| 20260507081007 | 10 | 159 | 3.2 | 8.0 | 0.00 | 0.00 | 0.00 | 74 | 1016.7 |
| 20260507080507 | 10 | 155 | 1.6 | 8.0 | 0.00 | 0.00 | 0.00 | 75 | 1016.8 |
| 20260507080020 | 10 | 184 | 1.6 | 6.4 | 0.00 | 0.00 | 0.00 | 75 | 1016.7 |
| 20260507075510 | 10 | 105 | 3.2 | 6.4 | 0.00 | 0.00 | 0.00 | 75 | 1016.7 |
| 20260507075007 | 10 | 101 | 1.6 | 6.4 | 0.00 | 0.00 | 0.00 | 76 | 1016.7 |
| 20260507074531 | 10 | 360 | 1.6 | 6.4 | 0.00 | 0.00 | 0.00 | 77 | 1016.7 |
| 20260507074007 | 9 | 360 | 1.6 | 4.8 | 0.00 | 0.00 | 0.00 | 78 | 1016.7 |
| 20260507073508 | 9 | 107 | 1.6 | 8.0 | 0.00 | 0.00 | 0.00 | 79 | 1016.7 |
| 20260507073024 | 9 | 88 | 1.6 | 8.0 | 0.00 | 0.00 | 0.00 | 79 | 1016.7 |
| 20260507072508 | 8 | 158 | 3.2 | 6.4 | 0.00 | 0.00 | 0.00 | 79 | 1016.7 |
| 20260507072009 | 8 | 134 | 3.2 | 9.7 | 0.00 | 0.00 | 0.00 | 79 | 1016.6 |
| 20260507071517 | 8 | 111 | 1.6 | 9.7 | 0.00 | 0.00 | 0.00 | 80 | 1016.6 |
| 20260507071007 | 8 | 143 | 3.2 | 6.4 | 0.00 | 0.00 | 0.00 | 81 | 1016.6 |
| 20260507070508 | 8 | 126 | 1.6 | 6.4 | 0.00 | 0.00 | 0.00 | 82 | 1016.5 |
| 20260507070018 | 8 | 110 | 1.6 | 8.0 | 0.00 | 0.00 | 0.00 | 82 | 1016.5 |
| 20260507065513 | 8 | 96 | 3.2 | 11.3 | 0.00 | 0.00 | 0.00 | 82 | 1016.5 |
| 20260507065007 | 7 | 157 | 3.2 | 11.3 | 0.00 | 0.00 | 0.00 | 82 | 1016.5 |
| 20260507064523 | 7 | 138 | 3.2 | 6.4 | 0.00 | 0.00 | 0.00 | 84 | 1016.5 |
| 20260507064011 | 7 | 80 | 1.6 | 8.0 | 0.00 | 0.00 | 0.00 | 84 | 1016.5 |
| 20260507063511 | 7 | 89 | 1.6 | 8.0 | 0.00 | 0.00 | 0.00 | 84 | 1016.5 |
| 20260507063027 | 7 | 130 | 1.6 | 8.0 | 0.00 | 0.00 | 0.00 | 84 | 1016.5 |
| 20260507062508 | 7 | 145 | 1.6 | 9.7 | 0.00 | 0.00 | 0.00 | 85 | 1016.5 |
| 20260507062012 | 7 | 144 | 3.2 | 9.7 | 0.00 | 0.00 | 0.00 | 85 | 1016.5 |
| 20260507061533 | 7 | 115 | 3.2 | 8.0 | 0.00 | 0.00 | 0.00 | 86 | 1016.5 |
| 20260507061009 | 6 | 125 | 1.6 | 4.8 | 0.00 | 0.00 | 0.00 | 86 | 1016.5 |
| 20260507060504 | 6 | 140 | 0.0 | 3.2 | 0.00 | 0.00 | 0.00 | 87 | 1016.6 |
| 20260507060018 | 6 | 59 | 0.0 | 3.2 | 0.00 | 0.00 | 0.00 | 87 | 1016.6 |
| 20260507055508 | 6 | 123 | 0.0 | 3.2 | 0.00 | 0.00 | 0.00 | 87 | 1016.5 |
| 20260507055008 | 6 | 351 | 0.0 | 3.2 | 0.00 | 0.00 | 0.00 | 88 | 1016.4 |
| 20260507054522 | 6 | 360 | 1.6 | 3.2 | 0.00 | 0.00 | 0.00 | 88 | 1016.4 |
| 20260507054010 | 6 | 360 | 0.0 | 3.2 | 0.00 | 0.00 | 0.00 | 88 | 1016.3 |
| 20260507053507 | 6 | 360 | 0.0 | 3.2 | 0.00 | 0.00 | 0.00 | 89 | 1016.2 |
| 20260507053031 | 5 | 360 | 0.0 | 3.2 | 0.00 | 0.00 | 0.00 | 89 | 1016.2 |
| 20260507052509 | 5 | 360 | 0.0 | 3.2 | 0.00 | 0.00 | 0.00 | 89 | 1016.2 |
| 20260507052013 | 5 | 360 | 0.0 | 3.2 | 0.00 | 0.00 | 0.00 | 89 | 1016.2 |
| 20260507051526 | 5 | 360 | 0.0 | 3.2 | 0.00 | 0.00 | 0.00 | 89 | 1016.3 |
| 20260507051007 | 5 | 360 | 0.0 | 3.2 | 0.00 | 0.00 | 0.00 | 89 | 1016.3 |
| 20260507050510 | 5 | 360 | 0.0 | 3.2 | 0.00 | 0.00 | 0.00 | 88 | 1016.4 |
| 20260507050025 | 5 | 360 | 0.0 | 3.2 | 0.00 | 0.00 | 0.00 | 88 | 1016.4 |
| 20260507045509 | 5 | 360 | 0.0 | 3.2 | 0.00 | 0.00 | 0.00 | 88 | 1016.3 |
| 20260507045006 | 5 | 360 | 0.0 | 3.2 | 0.00 | 0.00 | 0.00 | 88 | 1016.4 |
| 20260507044519 | 5 | 360 | 0.0 | 4.8 | 0.00 | 0.00 | 0.00 | 88 | 1016.4 |
| 20260507044008 | 5 | 360 | 0.0 | 4.8 | 0.00 | 0.00 | 0.00 | 88 | 1016.3 |
| 20260507043510 | 5 | 360 | 0.0 | 4.8 | 0.00 | 0.00 | 0.00 | 89 | 1016.3 |
| 20260507043023 | 5 | 360 | 1.6 | 4.8 | 0.00 | 0.00 | 0.00 | 89 | 1016.3 |
| 20260507042510 | 5 | 360 | 0.0 | 3.2 | 0.00 | 0.00 | 0.00 | 89 | 1016.3 |
| 20260507042003 | 5 | 360 | 0.0 | 3.2 | 0.00 | 0.00 | 0.00 | 89 | 1016.3 |
| 20260507041505 | 5 | 360 | 1.6 | 6.4 | 0.00 | 0.00 | 0.00 | 88 | 1016.3 |
| 20260507041003 | 5 | 360 | 0.0 | 6.4 | 0.00 | 0.00 | 0.00 | 88 | 1016.2 |
| 20260507040507 | 5 | 360 | 1.6 | 6.4 | 0.00 | 0.00 | 0.00 | 89 | 1016.2 |
| 20260507040016 | 5 | 360 | 1.6 | 4.8 | 0.00 | 0.00 | 0.00 | 89 | 1016.2 |
| 20260507035507 | 5 | 360 | 0.0 | 4.8 | 0.00 | 0.00 | 0.00 | 89 | 1016.3 |
| 20260507035010 | 5 | 360 | 0.0 | 4.8 | 0.00 | 0.00 | 0.00 | 89 | 1016.2 |
| 20260507034527 | 5 | 360 | 1.6 | 3.2 | 0.00 | 0.00 | 0.00 | 89 | 1016.2 |
| 20260507034006 | 5 | 360 | 0.0 | 3.2 | 0.00 | 0.00 | 0.00 | 89 | 1016.2 |
| 20260507033507 | 5 | 360 | 0.0 | 3.2 | 0.00 | 0.00 | 0.00 | 89 | 1016.2 |
| 20260507033023 | 5 | 360 | 0.0 | 3.2 | 0.00 | 0.00 | 0.00 | 89 | 1016.3 |
| 20260507032512 | 5 | 360 | 0.0 | 3.2 | 0.00 | 0.00 | 0.00 | 89 | 1016.2 |
| 20260507032003 | 5 | 360 | 0.0 | 4.8 | 0.00 | 0.00 | 0.00 | 89 | 1016.2 |
| 20260507031506 | 5 | 360 | 0.0 | 4.8 | 0.00 | 0.00 | 0.00 | 89 | 1016.3 |
| 20260507031012 | 5 | 360 | 0.0 | 4.8 | 0.00 | 0.00 | 0.00 | 89 | 1016.2 |
| 20260507030504 | 5 | 360 | 0.0 | 4.8 | 0.00 | 0.00 | 0.00 | 90 | 1016.1 |
| 20260507030011 | 5 | 360 | 1.6 | 4.8 | 0.00 | 0.00 | 0.00 | 90 | 1016.2 |
| 20260507025507 | 5 | 360 | 0.0 | 3.2 | 0.00 | 0.00 | 0.00 | 90 | 1016.2 |
| 20260507025010 | 5 | 360 | 1.6 | 3.2 | 0.00 | 0.00 | 0.00 | 91 | 1016.2 |
| 20260507024516 | 5 | 360 | 0.0 | 4.8 | 0.00 | 0.00 | 0.00 | 91 | 1016.2 |
| 20260507024010 | 5 | 360 | 1.6 | 4.8 | 0.00 | 0.00 | 0.00 | 91 | 1016.2 |
| 20260507023509 | 5 | 360 | 1.6 | 3.2 | 0.00 | 0.00 | 0.00 | 91 | 1016.1 |
| 20260507023020 | 5 | 360 | 0.0 | 3.2 | 0.00 | 0.00 | 0.00 | 92 | 1016.2 |
| 20260507022512 | 5 | 360 | 0.0 | 3.2 | 0.00 | 0.00 | 0.00 | 92 | 1016.2 |
| 20260507022011 | 5 | 360 | 0.0 | 3.2 | 0.00 | 0.00 | 0.00 | 92 | 1016.2 |
| 20260507021523 | 5 | 360 | 0.0 | 0.0 | 0.00 | 0.00 | 0.00 | 92 | 1016.2 |
| 20260507021007 | 5 | 360 | 0.0 | 3.2 | 0.00 | 0.00 | 0.00 | 92 | 1016.1 |
| 20260507020504 | 5 | 360 | 0.0 | 3.2 | 0.00 | 0.00 | 0.00 | 92 | 1015.9 |
| 20260507020008 | 5 | 360 | 0.0 | 3.2 | 0.00 | 0.00 | 0.00 | 92 | 1015.9 |
| 20260507015503 | 5 | 360 | 0.0 | 3.2 | 0.00 | 0.00 | 0.00 | 92 | 1016.0 |
| 20260507015004 | 5 | 360 | 0.0 | 0.0 | 0.00 | 0.00 | 0.00 | 91 | 1016.0 |
| 20260507014520 | 5 | 360 | 0.0 | 0.0 | 0.00 | 0.00 | 0.00 | 92 | 1016.1 |
| 20260507014008 | 5 | 360 | 0.0 | 3.2 | 0.00 | 0.00 | 0.00 | 92 | 1016.1 |
| 20260507013506 | 5 | 360 | 0.0 | 3.2 | 0.00 | 0.00 | 0.00 | 92 | 1016.1 |
| 20260507013020 | 4 | 360 | 0.0 | 3.2 | 0.00 | 0.00 | 0.00 | 92 | 1016.1 |
| 20260507012507 | 4 | 360 | 0.0 | 3.2 | 0.00 | 0.00 | 0.00 | 92 | 1016.1 |
| 20260507012008 | 4 | 360 | 0.0 | 3.2 | 0.00 | 0.00 | 0.00 | 92 | 1016.1 |
| 20260507011523 | 4 | 360 | 0.0 | 3.2 | 0.00 | 0.00 | 0.00 | 92 | 1016.1 |
| 20260507011007 | 4 | 360 | 0.0 | 1.6 | 0.00 | 0.00 | 0.00 | 91 | 1016.2 |
| 20260507010511 | 4 | 360 | 0.0 | 0.0 | 0.00 | 0.00 | 0.00 | 91 | 1016.2 |
| 20260507010033 | 4 | 360 | 0.0 | 0.0 | 0.00 | 0.00 | 0.00 | 91 | 1016.3 |
| 20260507005502 | 4 | 360 | 0.0 | 3.2 | 0.00 | 0.00 | 0.00 | 91 | 1016.3 |
| 20260507005004 | 4 | 360 | 0.0 | 3.2 | 0.00 | 0.00 | 0.00 | 90 | 1016.3 |
| 20260507004513 | 4 | 360 | 0.0 | 0.0 | 0.00 | 0.00 | 0.00 | 90 | 1016.3 |
| 20260507004006 | 4 | 360 | 0.0 | 0.0 | 0.00 | 0.00 | 0.00 | 90 | 1016.3 |
| 20260507003507 | 5 | 360 | 0.0 | 0.0 | 0.00 | 0.00 | 0.00 | 89 | 1016.3 |
| 20260507003015 | 5 | 360 | 0.0 | 0.0 | 0.00 | 0.00 | 0.00 | 90 | 1016.3 |
| 20260507002505 | 5 | 360 | 0.0 | 3.2 | 0.00 | 0.00 | 0.00 | 90 | 1016.4 |
| 20260507002007 | 5 | 360 | 0.0 | 3.2 | 0.00 | 0.00 | 0.00 | 91 | 1016.4 |
| 20260507001523 | 5 | 360 | 0.0 | 3.2 | 0.00 | 0.00 | 0.00 | 91 | 1016.4 |
| 20260507001008 | 5 | 360 | 0.0 | 1.6 | 0.00 | 0.00 | 0.00 | 91 | 1016.5 |
| 20260507000509 | 5 | 360 | 0.0 | 0.0 | 0.00 | 0.00 | 0.00 | 91 | 1016.6 |
| 20260507000028 | 5 | 360 | 0.0 | 0.0 | 0.00 | 0.00 | 0.00 | 91 | 1016.7 |
| 20260506235509 | 5 | 360 | 0.0 | 0.0 | 0.00 | 0.00 | 0.00 | 91 | 1016.7 |
| 20260506235012 | 5 | 360 | 0.0 | 3.2 | 0.00 | 0.00 | 0.00 | 92 | 1016.7 |
| 20260506234543 | 5 | 360 | 0.0 | 3.2 | 0.00 | 0.00 | 0.00 | 92 | 1016.7 |
| 20260506234010 | 5 | 360 | 0.0 | 3.2 | 0.00 | 0.00 | 0.00 | 92 | 1016.7 |
| 20260506233507 | 4 | 360 | 0.0 | 3.2 | 0.00 | 0.00 | 0.00 | 93 | 1016.7 |
| 20260506233014 | 4 | 360 | 0.0 | 3.2 | 0.00 | 0.00 | 0.00 | 93 | 1016.7 |
| 20260506232506 | 4 | 360 | 0.0 | 3.2 | 0.00 | 0.00 | 0.00 | 93 | 1016.7 |
| 20260506232007 | 4 | 360 | 0.0 | 0.0 | 0.00 | 0.00 | 0.00 | 93 | 1016.7 |
| 20260506231517 | 3 | 360 | 0.0 | 0.0 | 0.00 | 0.00 | 0.00 | 92 | 1016.6 |
| 20260506231007 | 3 | 360 | 0.0 | 0.0 | 0.00 | 0.00 | 0.00 | 92 | 1016.7 |
| 20260506230507 | 3 | 360 | 0.0 | 0.0 | 0.00 | 0.00 | 0.00 | 92 | 1016.7 |
| 20260506230023 | 3 | 360 | 0.0 | 0.0 | 0.00 | 0.00 | 0.00 | 92 | 1016.7 |
| 20260506225508 | 3 | 360 | 0.0 | 0.0 | 0.00 | 0.00 | 0.00 | 92 | 1016.5 |
| 20260506225007 | 3 | 360 | 0.0 | 0.0 | 0.00 | 0.00 | 0.00 | 91 | 1016.6 |
| 20260506224529 | 3 | 360 | 0.0 | 0.0 | 0.00 | 0.00 | 0.00 | 91 | 1016.6 |
| 20260506224008 | 3 | 360 | 0.0 | 0.0 | 0.00 | 0.00 | 0.00 | 90 | 1016.7 |
| 20260506223511 | 3 | 360 | 0.0 | 0.0 | 0.00 | 0.00 | 0.00 | 89 | 1016.7 |
| 20260506223009 | 3 | 360 | 0.0 | 0.0 | 0.00 | 0.00 | 0.00 | 89 | 1016.7 |
| 20260506222506 | 3 | 360 | 0.0 | 0.0 | 0.00 | 0.00 | 0.00 | 89 | 1016.7 |
| 20260506222008 | 3 | 360 | 0.0 | 0.0 | 0.00 | 0.00 | 0.00 | 88 | 1016.6 |
| 20260506221515 | 3 | 360 | 0.0 | 0.0 | 0.00 | 0.00 | 0.00 | 88 | 1016.6 |
| 20260506221005 | 3 | 360 | 0.0 | 0.0 | 0.00 | 0.00 | 0.00 | 87 | 1016.6 |
| 20260506220508 | 3 | 360 | 0.0 | 0.0 | 0.00 | 0.00 | 0.00 | 87 | 1016.5 |
| 20260506220032 | 4 | 360 | 0.0 | 0.0 | 0.00 | 0.00 | 0.00 | 87 | 1016.4 |
| 20260506215506 | 4 | 360 | 0.0 | 0.0 | 0.00 | 0.00 | 0.00 | 87 | 1016.4 |
| 20260506215010 | 4 | 360 | 0.0 | 0.0 | 0.00 | 0.00 | 0.00 | 87 | 1016.4 |
| 20260506214523 | 4 | 360 | 0.0 | 0.0 | 0.00 | 0.00 | 0.00 | 87 | 1016.4 |
| 20260506214008 | 4 | 360 | 0.0 | 0.0 | 0.00 | 0.00 | 0.00 | 86 | 1016.4 |
| 20260506213508 | 5 | 360 | 0.0 | 1.6 | 0.00 | 0.00 | 0.00 | 85 | 1016.3 |
| 20260506213026 | 5 | 360 | 0.0 | 3.2 | 0.00 | 0.00 | 0.00 | 85 | 1016.4 |
| 20260506212516 | 5 | 360 | 0.0 | 3.2 | 0.00 | 0.00 | 0.00 | 84 | 1016.4 |
| 20260506212010 | 5 | 360 | 0.0 | 0.0 | 0.00 | 0.00 | 0.00 | 84 | 1016.4 |
| 20260506211519 | 5 | 360 | 0.0 | 0.0 | 0.00 | 0.00 | 0.00 | 84 | 1016.4 |
| 20260506211006 | 5 | 360 | 0.0 | 1.6 | 0.00 | 0.00 | 0.00 | 84 | 1016.4 |
| 20260506210508 | 5 | 360 | 0.0 | 3.2 | 0.00 | 0.00 | 0.00 | 83 | 1016.3 |
| 20260506210017 | 6 | 360 | 0.0 | 3.2 | 0.00 | 0.00 | 0.00 | 83 | 1016.3 |
| 20260506205507 | 6 | 360 | 0.0 | 3.2 | 0.00 | 0.00 | 0.00 | 83 | 1016.2 |
| 20260506205010 | 6 | 360 | 0.0 | 3.2 | 0.00 | 0.00 | 0.00 | 83 | 1016.2 |
| 20260506204523 | 6 | 360 | 0.0 | 3.2 | 0.00 | 0.00 | 0.00 | 83 | 1016.0 |
| 20260506204007 | 6 | 360 | 0.0 | 3.2 | 0.00 | 0.00 | 0.00 | 83 | 1016.0 |
| 20260506203510 | 6 | 360 | 0.0 | 3.2 | 0.00 | 0.00 | 0.00 | 82 | 1016.0 |
| 20260506203026 | 6 | 360 | 0.0 | 3.2 | 0.00 | 0.00 | 0.00 | 82 | 1016.0 |
| 20260506202510 | 6 | 360 | 0.0 | 3.2 | 0.00 | 0.00 | 0.00 | 81 | 1016.0 |
| 20260506202010 | 6 | 360 | 0.0 | 3.2 | 0.00 | 0.00 | 0.00 | 80 | 1016.0 |
| 20260506201526 | 6 | 360 | 0.0 | 0.0 | 0.00 | 0.00 | 0.00 | 80 | 1016.0 |
| 20260506201009 | 7 | 360 | 0.0 | 0.0 | 0.00 | 0.00 | 0.00 | 79 | 1016.0 |
| 20260506200505 | 7 | 360 | 0.0 | 0.0 | 0.00 | 0.00 | 0.00 | 79 | 1015.9 |
| 20260506200015 | 7 | 360 | 0.0 | 1.6 | 0.00 | 0.00 | 0.00 | 78 | 1015.8 |
| 20260506195509 | 7 | 360 | 0.0 | 3.2 | 0.00 | 0.00 | 0.00 | 77 | 1015.7 |
| 20260506195010 | 7 | 360 | 0.0 | 3.2 | 0.00 | 0.00 | 0.00 | 77 | 1015.7 |
| 20260506194530 | 7 | 360 | 0.0 | 8.0 | 0.00 | 0.00 | 0.00 | 76 | 1015.7 |
| 20260506194013 | 7 | 360 | 1.6 | 8.0 | 0.00 | 0.00 | 0.00 | 76 | 1015.6 |
| 20260506193510 | 8 | 360 | 1.6 | 6.4 | 0.00 | 0.00 | 0.00 | 75 | 1015.5 |
| 20260506193024 | 8 | 360 | 0.0 | 3.2 | 0.00 | 0.00 | 0.00 | 74 | 1015.5 |
| 20260506192511 | 8 | 360 | 0.0 | 4.8 | 0.00 | 0.00 | 0.00 | 73 | 1015.5 |
| 20260506192005 | 8 | 360 | 1.6 | 6.4 | 0.00 | 0.00 | 0.00 | 73 | 1015.4 |
| 20260506191508 | 8 | 360 | 0.0 | 6.4 | 0.00 | 0.00 | 0.00 | 73 | 1015.5 |
| 20260506191004 | 8 | 360 | 3.2 | 6.4 | 0.00 | 0.00 | 0.00 | 73 | 1015.5 |
| 20260506190505 | 8 | 360 | 0.0 | 3.2 | 0.00 | 0.00 | 0.00 | 72 | 1015.6 |
| 20260506190012 | 8 | 360 | 0.0 | 3.2 | 0.00 | 0.00 | 0.00 | 71 | 1015.6 |
| 20260506185506 | 8 | 360 | 0.0 | 4.8 | 0.00 | 0.00 | 0.00 | 71 | 1015.7 |
| 20260506185006 | 8 | 360 | 1.6 | 4.8 | 0.00 | 0.00 | 0.00 | 70 | 1015.7 |
| 20260506184516 | 9 | 360 | 1.6 | 6.4 | 0.00 | 0.00 | 0.00 | 69 | 1015.6 |
| 20260506184009 | 9 | 360 | 0.0 | 6.4 | 0.00 | 0.00 | 0.00 | 69 | 1015.5 |
| 20260506183504 | 9 | 360 | 0.0 | 4.8 | 0.00 | 0.00 | 0.00 | 68 | 1015.6 |
| 20260506183004 | 9 | 360 | 1.6 | 4.8 | 0.00 | 0.00 | 0.00 | 68 | 1015.5 |
| 20260506182503 | 10 | 360 | 1.6 | 6.4 | 0.00 | 0.00 | 0.00 | 67 | 1015.4 |
| 20260506182002 | 10 | 360 | 0.0 | 11.3 | 0.00 | 0.00 | 0.00 | 66 | 1015.4 |
| 20260506181505 | 10 | 182 | 1.6 | 11.3 | 0.00 | 0.00 | 0.00 | 65 | 1015.4 |
| 20260506181003 | 10 | 51 | 1.6 | 8.0 | 0.00 | 0.00 | 0.00 | 66 | 1015.4 |
| 20260506180504 | 10 | 360 | 0.0 | 9.7 | 0.00 | 0.00 | 0.00 | 65 | 1015.4 |
| 20260506180010 | 10 | 65 | 3.2 | 12.9 | 0.00 | 0.00 | 0.00 | 64 | 1015.3 |
| 20260506175505 | 10 | 338 | 3.2 | 12.9 | 0.00 | 0.00 | 0.00 | 64 | 1015.2 |
| 20260506175009 | 10 | 163 | 0.0 | 8.0 | 0.00 | 0.00 | 0.00 | 64 | 1015.2 |
| 20260506174513 | 11 | 90 | 1.6 | 6.4 | 0.00 | 0.00 | 0.00 | 63 | 1015.2 |
| 20260506174007 | 11 | 11 | 3.2 | 8.0 | 0.00 | 0.00 | 0.00 | 64 | 1015.2 |
| 20260506173506 | 11 | 86 | 3.2 | 8.0 | 0.00 | 0.00 | 0.00 | 63 | 1015.1 |
| 20260506173023 | 11 | 31 | 1.6 | 9.7 | 0.00 | 0.00 | 0.00 | 63 | 1015.1 |
| 20260506172503 | 11 | 348 | 3.2 | 12.9 | 0.00 | 0.00 | 0.00 | 61 | 1015.0 |
| 20260506172004 | 11 | 248 | 1.6 | 12.9 | 0.00 | 0.00 | 0.00 | 61 | 1015.0 |
| 20260506171503 | 11 | 180 | 0.0 | 8.0 | 0.00 | 0.00 | 0.00 | 62 | 1015.0 |
| 20260506171006 | 11 | 111 | 1.6 | 8.0 | 0.00 | 0.00 | 0.00 | 60 | 1015.0 |
| 20260506170502 | 11 | 360 | 1.6 | 6.4 | 0.00 | 0.00 | 0.00 | 59 | 1015.0 |
| 20260506170006 | 11 | 248 | 1.6 | 11.3 | 0.00 | 0.00 | 0.00 | 59 | 1014.9 |
| 20260506165504 | 11 | 67 | 4.8 | 11.3 | 0.00 | 0.00 | 0.00 | 57 | 1014.9 |
| 20260506165003 | 11 | 342 | 1.6 | 9.7 | 0.00 | 0.00 | 0.00 | 56 | 1014.9 |
| 20260506164515 | 11 | 287 | 1.6 | 9.7 | 0.00 | 0.00 | 0.00 | 56 | 1014.9 |
| 20260506164008 | 12 | 268 | 3.2 | 6.4 | 0.00 | 0.00 | 0.00 | 55 | 1014.9 |
| 20260506163509 | 12 | 15 | 1.6 | 6.4 | 0.00 | 0.00 | 0.00 | 55 | 1014.8 |
| 20260506163019 | 12 | 342 | 1.6 | 4.8 | 0.00 | 0.00 | 0.00 | 55 | 1014.9 |
| 20260506162508 | 12 | 300 | 0.0 | 3.2 | 0.00 | 0.00 | 0.00 | 56 | 1014.8 |
| 20260506162013 | 12 | 46 | 1.6 | 6.4 | 0.00 | 0.00 | 0.00 | 55 | 1014.8 |
| 20260506161524 | 12 | 304 | 1.6 | 9.7 | 0.00 | 0.00 | 0.00 | 55 | 1014.8 |
| 20260506161003 | 12 | 360 | 0.0 | 9.7 | 0.00 | 0.00 | 0.00 | 54 | 1014.7 |
| 20260506160505 | 12 | 15 | 1.6 | 9.7 | 0.00 | 0.00 | 0.00 | 56 | 1014.7 |
| 20260506160006 | 12 | 275 | 0.0 | 9.7 | 0.00 | 0.00 | 0.00 | 53 | 1014.7 |
| 20260506155503 | 12 | 267 | 3.2 | 14.5 | 0.00 | 0.00 | 0.00 | 54 | 1014.8 |
| 20260506155004 | 13 | 307 | 3.2 | 14.5 | 0.00 | 0.00 | 0.00 | 53 | 1014.7 |
| 20260506154516 | 13 | 300 | 1.6 | 11.3 | 0.00 | 0.00 | 0.00 | 52 | 1014.7 |
| 20260506154007 | 13 | 53 | 3.2 | 11.3 | 0.00 | 0.00 | 0.00 | 52 | 1014.8 |
| 20260506153510 | 13 | 62 | 3.2 | 9.7 | 0.00 | 0.00 | 0.00 | 49 | 1014.7 |
| 20260506153013 | 13 | 67 | 3.2 | 9.7 | 0.00 | 0.00 | 0.00 | 48 | 1014.7 |
| 20260506152511 | 13 | 9 | 3.2 | 6.4 | 0.00 | 0.00 | 0.00 | 48 | 1014.7 |
| 20260506152012 | 12 | 254 | 1.6 | 6.4 | 0.00 | 0.00 | 0.00 | 47 | 1014.7 |
| 20260506151522 | 12 | 276 | 0.0 | 9.7 | 0.00 | 0.00 | 0.00 | 50 | 1014.8 |
| 20260506151010 | 12 | 41 | 3.2 | 9.7 | 0.00 | 0.00 | 0.00 | 50 | 1014.8 |
| 20260506150507 | 12 | 142 | 1.6 | 6.4 | 0.00 | 0.00 | 0.00 | 50 | 1014.9 |
| 20260506150004 | 12 | 323 | 1.6 | 8.0 | 0.00 | 0.00 | 0.00 | 51 | 1014.9 |
| 20260506145504 | 12 | 39 | 3.2 | 9.7 | 0.00 | 0.00 | 0.00 | 49 | 1014.9 |
| 20260506145005 | 12 | 360 | 1.6 | 9.7 | 0.00 | 0.00 | 0.00 | 50 | 1014.9 |
| 20260506144507 | 12 | 294 | 1.6 | 9.7 | 0.00 | 0.00 | 0.00 | 49 | 1015.0 |
| 20260506144006 | 12 | 171 | 1.6 | 12.9 | 0.00 | 0.00 | 0.00 | 51 | 1014.9 |
| 20260506143507 | 12 | 296 | 3.2 | 12.9 | 0.00 | 0.00 | 0.00 | 49 | 1015.0 |
| 20260506143028 | 12 | 37 | 1.6 | 9.7 | 0.00 | 0.00 | 0.00 | 51 | 1014.9 |
| 20260506142510 | 12 | 69 | 1.6 | 9.7 | 0.00 | 0.00 | 0.00 | 50 | 1014.9 |
| 20260506142013 | 12 | 16 | 1.6 | 12.9 | 0.00 | 0.00 | 0.00 | 49 | 1014.8 |